When you browse on this site, cookies collect data to enhance your experience and personalize the content and advertising you see.
Visit our Privacy Policy to learn more. By continuing to use the site, you agree to this use of cookies and data.
  • In Sweden
  • List of Countries
  • For 7 days
  • Water Temperature
  • Satellite Maps
  • Weather Map
  • Weather Widgets
  • user-avatar
    Login

    Hourly Weather Sydney

    Today, 18 June, Tuesday

    Time Temperature Precipitation Wind Pressure Humidity
    00:00 +12°C° 0.2 mm 3 mps 764 mmHg 83%
    01:00 +13°C° 0.2 mm 3 mps 763 mmHg 82%
    02:00 +12°C° 0 mm 3 mps 763 mmHg 83%
    03:00 +12°C° 0 mm 3 mps 763 mmHg 85%
    04:00 +12°C° 0 mm 2 mps 763 mmHg 86%
    05:00 +12°C° 0 mm 2 mps 763 mmHg 86%
    06:00 +12°C° 0 mm 2 mps 763 mmHg 86%
    07:00 +11°C° 0 mm 3 mps 763 mmHg 86%
    08:00 +13°C° 0.1 mm 3 mps 763 mmHg 80%
    09:00 +14°C° 0.1 mm 3 mps 763 mmHg 73%
    10:00 +16°C° 0 mm 2 mps 764 mmHg 67%
    11:00 +17°C° 0 mm 2 mps 763 mmHg 64%
    12:00 +18°C° 0 mm 2 mps 762 mmHg 60%
    13:00 +19°C° 0 mm 2 mps 762 mmHg 56%
    14:00 +19°C° 0 mm 2 mps 761 mmHg 57%
    15:00 +19°C° 0 mm 2 mps 761 mmHg 58%
    16:00 +20°C° 0 mm 1 mps 761 mmHg 59%
    17:00 +18°C° 0 mm 2 mps 762 mmHg 61%
    18:00 +17°C° 0 mm 3 mps 762 mmHg 63%
    19:00 +17°C° 0 mm 3 mps 763 mmHg 65%
    20:00 +15°C° 0 mm 4 mps 763 mmHg 62%
    21:00 +14°C° 0 mm 5 mps 762 mmHg 58%
    22:00 +14°C° 0 mm 6 mps 762 mmHg 55%
    23:00 +13°C° 0 mm 6 mps 762 mmHg 59%

    Tomorrow, 19 June, Wednesday

    Time Temperature Precipitation Wind Pressure Humidity
    00:00 +11°C° 0 mm 6 mps 762 mmHg 62%
    01:00 +10°C° 0 mm 6 mps 762 mmHg 66%
    02:00 +10°C° 0 mm 5 mps 763 mmHg 69%
    03:00 +9°C° 0 mm 5 mps 763 mmHg 71%
    04:00 +8°C° 0 mm 5 mps 763 mmHg 73%
    05:00 +8°C° 0 mm 5 mps 763 mmHg 73%
    06:00 +8°C° 0 mm 5 mps 764 mmHg 73%
    07:00 +8°C° 0 mm 5 mps 764 mmHg 73%
    08:00 +9°C° 0.1 mm 5 mps 765 mmHg 67%
    09:00 +11°C° 0.1 mm 6 mps 765 mmHg 61%
    10:00 +13°C° 0.1 mm 6 mps 765 mmHg 56%
    11:00 +14°C° 0 mm 6 mps 765 mmHg 52%
    12:00 +15°C° 0 mm 6 mps 765 mmHg 49%
    13:00 +16°C° 0 mm 6 mps 764 mmHg 46%
    14:00 +15°C° 0 mm 6 mps 764 mmHg 47%
    15:00 +15°C° 0 mm 6 mps 764 mmHg 47%
    16:00 +14°C° 0 mm 6 mps 765 mmHg 47%
    17:00 +13°C° 0 mm 6 mps 765 mmHg 51%
    18:00 +12°C° 0 mm 5 mps 766 mmHg 56%
    19:00 +10°C° 0 mm 5 mps 766 mmHg 60%
    20:00 +10°C° 0 mm 5 mps 767 mmHg 61%
    21:00 +10°C° 0 mm 4 mps 767 mmHg 63%
    22:00 +8°C° 0 mm 4 mps 767 mmHg 65%
    23:00 +8°C° 0.1 mm 4 mps 767 mmHg 65%

    Day after tomorrow, 20 June, Thursday

    Time Temperature Precipitation Wind Pressure Humidity
    00:00 +9°C° 0.1 mm 3 mps 767 mmHg 65%
    01:00 +9°C° 0.1 mm 3 mps 767 mmHg 65%
    02:00 +8°C° 0.2 mm 4 mps 767 mmHg 67%
    03:00 +8°C° 0.2 mm 4 mps 767 mmHg 68%
    04:00 +8°C° 0.2 mm 4 mps 767 mmHg 70%
    05:00 +8°C° 0.2 mm 4 mps 767 mmHg 72%
    06:00 +8°C° 0.2 mm 4 mps 767 mmHg 73%
    07:00 +7°C° 0.2 mm 4 mps 767 mmHg 75%
    08:00 +10°C° 0 mm 4 mps 767 mmHg 71%
    09:00 +11°C° 0 mm 3 mps 767 mmHg 66%
    10:00 +12°C° 0 mm 3 mps 767 mmHg 62%
    11:00 +13°C° 0.1 mm 3 mps 766 mmHg 62%
    12:00 +13°C° 0.1 mm 3 mps 766 mmHg 62%
    13:00 +14°C° 0.1 mm 4 mps 765 mmHg 62%
    14:00 +13°C° 0.2 mm 3 mps 765 mmHg 66%
    15:00 +13°C° 0.2 mm 3 mps 765 mmHg 70%
    16:00 +12°C° 0.2 mm 3 mps 764 mmHg 75%
    17:00 +13°C° 0.3 mm 2 mps 765 mmHg 77%
    18:00 +12°C° 0.3 mm 2 mps 765 mmHg 80%
    19:00 +10°C° 0.3 mm 2 mps 765 mmHg 83%
    20:00 +10°C° 0.3 mm 2 mps 765 mmHg 83%
    21:00 +10°C° 0.3 mm 3 mps 765 mmHg 83%
    22:00 +9°C° 0.3 mm 3 mps 765 mmHg 83%
    23:00 +9°C° 0.2 mm 3 mps 765 mmHg 83%

    21 June, Friday

    Time Temperature Precipitation Wind Pressure Humidity
    00:00 +9°C° 0.2 mm 3 mps 765 mmHg 83%
    01:00 +9°C° 0.2 mm 3 mps 765 mmHg 83%
    02:00 +9°C° 0.1 mm 3 mps 765 mmHg 81%
    03:00 +8°C° 0.1 mm 4 mps 765 mmHg 79%
    04:00 +7°C° 0.1 mm 4 mps 765 mmHg 77%
    05:00 +7°C° 0 mm 4 mps 765 mmHg 76%
    06:00 +7°C° 0 mm 4 mps 766 mmHg 76%
    07:00 +6°C° 0 mm 4 mps 766 mmHg 76%
    08:00 +7°C° 0 mm 5 mps 766 mmHg 69%
    09:00 +9°C° 0 mm 5 mps 766 mmHg 61%
    10:00 +10°C° 0 mm 5 mps 766 mmHg 54%
    11:00 +12°C° 0 mm 5 mps 766 mmHg 49%
    12:00 +13°C° 0 mm 5 mps 766 mmHg 45%
    13:00 +14°C° 0 mm 6 mps 765 mmHg 40%
    14:00 +14°C° 0.1 mm 6 mps 765 mmHg 42%
    15:00 +13°C° 0.1 mm 6 mps 765 mmHg 44%
    16:00 +13°C° 0.1 mm 6 mps 766 mmHg 46%
    17:00 +11°C° 0 mm 6 mps 766 mmHg 49%
    18:00 +10°C° 0 mm 6 mps 767 mmHg 52%
    19:00 +8°C° 0 mm 6 mps 768 mmHg 54%
    20:00 +8°C° 0.1 mm 6 mps 768 mmHg 56%
    21:00 +7°C° 0.1 mm 6 mps 768 mmHg 59%
    22:00 +7°C° 0.1 mm 6 mps 769 mmHg 61%
    23:00 +5°C° 0.1 mm 6 mps 768 mmHg 62%

    22 June, Saturday

    Time Temperature Precipitation Wind Pressure Humidity
    00:00 +5°C° 0.1 mm 6 mps 768 mmHg 62%
    01:00 +5°C° 0.1 mm 7 mps 768 mmHg 63%
    02:00 +5°C° 0.1 mm 7 mps 768 mmHg 64%
    03:00 +5°C° 0.1 mm 7 mps 768 mmHg 65%
    04:00 +4°C° 0.1 mm 7 mps 768 mmHg 66%
    05:00 +4°C° 0.3 mm 6 mps 768 mmHg 67%
    06:00 +5°C° 0.3 mm 6 mps 769 mmHg 68%
    07:00 +5°C° 0.3 mm 6 mps 769 mmHg 69%
    08:00 +7°C° 0.7 mm 6 mps 769 mmHg 68%
    09:00 +9°C° 0.7 mm 5 mps 769 mmHg 67%
    10:00 +10°C° 0.7 mm 5 mps 769 mmHg 67%
    11:00 +12°C° 0.6 mm 5 mps 769 mmHg 65%
    12:00 +13°C° 0.6 mm 6 mps 769 mmHg 63%
    13:00 +14°C° 0.6 mm 6 mps 768 mmHg 61%
    14:00 +13°C° 0.5 mm 6 mps 768 mmHg 65%
    15:00 +13°C° 0.5 mm 6 mps 768 mmHg 69%
    16:00 +13°C° 0.5 mm 6 mps 768 mmHg 73%
    17:00 +12°C° 0.7 mm 5 mps 769 mmHg 77%
    18:00 +10°C° 0.7 mm 5 mps 769 mmHg 82%
    19:00 +10°C° 0.7 mm 4 mps 770 mmHg 86%
    20:00 +9°C° 0.7 mm 5 mps 770 mmHg 87%
    21:00 +9°C° 0.7 mm 5 mps 770 mmHg 88%
    22:00 +9°C° 0.7 mm 5 mps 770 mmHg 89%
    23:00 +8°C° 0.8 mm 5 mps 769 mmHg 89%

    23 June, Sunday

    Time Temperature Precipitation Wind Pressure Humidity
    00:00 +8°C° 0.8 mm 5 mps 769 mmHg 90%
    01:00 +8°C° 0.8 mm 5 mps 769 mmHg 90%
    02:00 +8°C° 1 mm 6 mps 769 mmHg 88%
    03:00 +8°C° 1 mm 6 mps 769 mmHg 87%
    04:00 +6°C° 1 mm 7 mps 768 mmHg 85%
    05:00 +7°C° 0.9 mm 6 mps 769 mmHg 85%
    06:00 +7°C° 0.9 mm 6 mps 769 mmHg 85%
    07:00 +5°C° 0.9 mm 6 mps 769 mmHg 84%
    08:00 +7°C° 2.1 mm 6 mps 769 mmHg 86%
    09:00 +7°C° 2.1 mm 6 mps 769 mmHg 87%
    10:00 +8°C° 2.1 mm 6 mps 769 mmHg 89%
    11:00 +8°C° 1.7 mm 6 mps 769 mmHg 87%
    12:00 +9°C° 1.7 mm 6 mps 769 mmHg 85%
    13:00 +9°C° 1.7 mm 6 mps 768 mmHg 84%
    14:00 +10°C° 0.8 mm 6 mps 768 mmHg 83%
    15:00 +10°C° 0.8 mm 7 mps 768 mmHg 82%
    16:00 +11°C° 0.8 mm 7 mps 768 mmHg 81%
    17:00 +10°C° 1.1 mm 7 mps 769 mmHg 82%
    18:00 +10°C° 1.1 mm 6 mps 769 mmHg 84%
    19:00 +10°C° 1.1 mm 6 mps 769 mmHg 85%
    20:00 +9°C° 1 mm 6 mps 770 mmHg 86%
    21:00 +9°C° 1 mm 6 mps 770 mmHg 87%
    22:00 +9°C° 1 mm 5 mps 770 mmHg 88%
    23:00 +9°C° 0.8 mm 6 mps 770 mmHg 88%
    Show more